Location: Bonac
(42.8765°N, 0.9753°E)
Time: 09:31:22
(UTC+00:00)

Resurs 1-3 - Pass Details

Date: 12 January 2026
Orbit: 612 x 615 km, 97.7° (Epoch: 18 February)

Event Time Altitude Azimuth Distance (km) Brightness Sun altitude
Rises 18:20:17 0° 166° (SSE) 2,871 7.0 -17.3°
Reaches altitude 10° 18:22:27 10° 166° (SSE) 1,971 6.1 -17.6°
Maximum altitude 18:26:45 90° 202° (SSW) 622 3.5 -18.4°
Drops below altitude 10° 18:31:05 10° 348° (NNW) 1,986 6.2 -19.2°
Sets 18:33:17 0° 348° (NNW) 2,896 7.0 -19.6°
